Showing default

COSMOS 2426 (GLONASS), 29671

Orbit data source: Space-Track

COSMOS 2426 (GLONASS), 29671 is a Commonwealth of Independent States-origin payload satellite in MEO that was launched on Mon, 25 Dec 2006 UTC via a PROTON-K/DM-2 launch vehicle from the Tyuratam Missile And Space Complex (TTMTR). Payload-class satellites include a variety of spacecraft equipped with specific instruments for various scientific and technological missions. These include communications satellites like Starlink; space stations such as the ISS; scientific satellites like the Hubble; Earth observation satellites from companies like Planet Labs, Umbra, and HawkEye 360; GPS; miniature CubeSats for education and research; and military/defense satellites.

Loading next visibility...
Identifier
29671, 2006-062B
Orbit
MEO
Country
Flag of CISCIS
Related business
Manufacturer
Resehetnev ISS
Mission
Non-operational Defense Navigation
Bus & Motor
URAGAN, Unknown motor
Mass
1,450 kg wet, ~1,200 kg dry
Launch date (UTC)
2006-12-25 (19 years ago)
Launch vehicle
PROTON-K/DM-2
Launch site
Tyuratam Missile And Space Complex (TTMTR)
Object type
Payload
Rocket body
Debris
Shape & HBR
Cyl + 1 Arm + 2 Pan, 3.9 m
Radar Cross Section
8.145 m², Large (>1 m²)

Expand to show TLE details & history
Last TLE update: 15 hours ago

TLE from 15 hours ago
0 COSMOS 2426 (GLONASS)
1 29671U 06062B   25260.24608584 -.00000019  00000-0  00000-0 0  9992
2 29671  64.6994 203.6043 0021576 181.1632 134.5059  2.12963367145732
Epoch: 2025-09-17T05:54Z
TLE epoch observation values (Epoch: 2025-09-17T05:54:21.816Z)
Latitude
-39.06383°
Longitude
96.07398°
Altitude
19,193.093 km
Speed
3.945 km/s
True Right ascension
12h 04m 21s
True Declination
-39° 01' 01"
Sunlit
Object was in daylight at epoch
Visualization orbit readout
Latitude
Unknown
Longitude
Unknown
Altitude
Unknown
Speed
Unknown
Apparent Right ascension
Unknown
Apparent Declination
Unknown
Sunlit
N/A
Visualization observer readout
Local Sidereal Time
13:34:41
Azimuth
Unknown
Elevation
Unknown
Doppler factor
Unknown
Orbital elements
Apogee altitude
19,195.641 km
Perigee altitude
19,085.523 km
Semi-major axis
25,518.719 km
Eccentricity
0.00216
Inclination
64.6994°
RAAN
203.6043°
Arg. of periapsis
181.1632°
True anomaly
134.6819°
Mean anomaly
134.5059°
Eccentric anomaly
134.59393°
Mean motion
0.53242 °/min
Orbital period
676.16 mins
BSTAR
0
Loading maneuver chart data...
Computing Atmospheric mass density...
Loading historical data...
Loading historical data...
Loading historical data...
Loading historical data...
Loading historical data...
Loading historical data...
Loading historical data...

Documentation

Showing up to 5 results
|